Weather History for Eagle, CO

Change the Weather History Date:

Monday, August 5, 2013

  Actual Average Record
Temperature  
Mean Temperature 64 °F -  
Max Temperature 78 °F 86 °F 96 °F (1981)
Min Temperature 50 °F 46 °F 35 °F (1956)
Degree Days  
Heating Degree Days 1    
Growing Degree Days 14 (Base 50)    
Moisture  
Dew Point 51 °F    
Average Humidity 72    
Maximum Humidity 88    
Minimum Humidity 34    
Precipitation  
Precipitation 0.00 in - - ()
Sea Level Pressure  
Sea Level Pressure 30.27 in    
Wind  
Wind Speed 3 mph (NNE)    
Max Wind Speed 12 mph    
Max Gust Speed 25 mph    
Visibility 10 miles    
Events Rain , Thunderstorm    
Averages and records for this station are not official NWS values.
T = Trace of Precipitation, MM = Missing Value Source: NWS Daily Summary

Daily Weather History Graph

Daily Weather History Graph

Search for Another Location

Airport:

Trip Planner

Search our weather history database for the weather conditions in past years. The results will help you decide how hot, cold, wet, or windy it might be!

Date:

Astronomy

Aug. 05, 2013 Rise Set
Actual Time 6:10 AM MDT 8:15 PM MDT
Civil Twilight 5:41 AM MDT 8:45 PM MDT
Nautical Twilight 5:04 AM MDT 9:21 PM MDT
Astronomical Twilight 4:25 AM MDT 10:00 PM MDT
Moon 5:08 AM MDT (8/5) 7:18 PM MDT (8/5)
Length of Visible Light 15h 04m
Length of Day
14h 04m
Waning Crescent, 1% of the Moon is Illuminated
Aug 5
Waning Crescent
Aug 6
New
Aug 14
First Quarter
Aug 20
Full
Aug 28
Last Quarter

Hourly Weather History & Observations

Time (MDT) Temp. Dew Point Humidity Pressure Visibility Wind Dir Wind Speed Gust Speed Precip Events Conditions
12:15 AM 59.0 °F 51.8 °F 77% 30.30 in 10.0 mi Calm Calm - N/A   Clear
12:35 AM 57.2 °F 51.8 °F 82% 30.31 in 10.0 mi NE 5.8 mph - N/A   Clear
12:55 AM 57.2 °F 51.8 °F 82% 30.30 in 10.0 mi ESE 4.6 mph - N/A   Clear
1:15 AM 55.4 °F 51.8 °F 88% 30.31 in 10.0 mi Calm Calm - N/A   Clear
1:35 AM 57.2 °F 50.0 °F 77% 30.31 in 10.0 mi SE 4.6 mph - N/A   Clear
2:15 AM 55.4 °F 48.2 °F 77% 30.31 in 10.0 mi ENE 3.5 mph - N/A   Clear
2:35 AM 53.6 °F 48.2 °F 82% 30.30 in 10.0 mi ENE 3.5 mph - N/A   Clear
2:55 AM 53.6 °F 48.2 °F 82% 30.31 in 10.0 mi Calm Calm - N/A   Clear
3:15 AM 53.6 °F 48.2 °F 82% 30.31 in 10.0 mi Calm Calm - N/A   Clear
3:35 AM 53.6 °F 48.2 °F 82% 30.31 in 10.0 mi Calm Calm - N/A   Clear
4:15 AM 51.8 °F 48.2 °F 88% 30.31 in 10.0 mi ESE 3.5 mph - N/A   Clear
4:35 AM 51.8 °F 48.2 °F 88% 30.31 in 10.0 mi East 4.6 mph - N/A   Clear
4:55 AM 51.8 °F 46.4 °F 82% 30.31 in 10.0 mi East 4.6 mph - N/A   Clear
5:15 AM 50.0 °F 46.4 °F 87% 30.31 in 10.0 mi East 5.8 mph - N/A   Clear
5:35 AM 50.0 °F 46.4 °F 87% 30.30 in 10.0 mi ESE 6.9 mph - N/A   Clear
5:55 AM 50.0 °F 46.4 °F 87% 30.31 in 10.0 mi Calm Calm - N/A   Clear
6:15 AM 50.0 °F 46.4 °F 87% 30.32 in 10.0 mi Calm Calm - N/A   Clear
6:50 AM 50.0 °F 46.4 °F 87% 30.32 in 10.0 mi Calm Calm - N/A   Partly Cloudy
7:50 AM 53.6 °F 48.2 °F 82% 30.33 in 10.0 mi Calm Calm - N/A   Partly Cloudy
8:50 AM 57.2 °F 50.0 °F 77% 30.34 in 10.0 mi Calm Calm - N/A   Partly Cloudy
9:50 AM 62.6 °F 50.0 °F 63% 30.31 in 10.0 mi Calm Calm - N/A   Partly Cloudy
10:50 AM 68.0 °F 48.2 °F 49% 30.29 in 10.0 mi Calm Calm - N/A   Partly Cloudy
11:50 AM 73.4 °F 48.2 °F 41% 30.26 in 10.0 mi Calm Calm - N/A   Scattered Clouds
12:50 PM 78.8 °F 48.2 °F 34% 30.21 in 10.0 mi NNW 5.8 mph - N/A   Mostly Cloudy
1:40 PM 75.2 °F 51.8 °F 44% 30.20 in 10.0 mi NW 5.8 mph - N/A Rain , Thunderstorm Thunderstorms and Rain
1:55 PM 69.8 °F 51.8 °F 53% 30.20 in 10.0 mi Variable 6.9 mph - N/A   Mostly Cloudy
2:15 PM 66.2 °F 57.2 °F 73% 30.21 in 10.0 mi Variable 5.8 mph - N/A Thunderstorm Thunderstorm
2:50 PM 73.4 °F 57.2 °F 57% 30.21 in 10.0 mi Variable 6.9 mph - N/A   Scattered Clouds
3:50 PM 71.6 °F 46.4 °F 41% 30.23 in 10.0 mi WNW 4.6 mph - N/A Rain Light Rain
4:55 PM 66.2 °F 53.6 °F 64% 30.24 in 10.0 mi SW 3.5 mph - N/A Rain Light Rain
5:50 PM 66.2 °F 55.4 °F 68% 30.23 in 10.0 mi Variable 4.6 mph - N/A   Mostly Cloudy
6:50 PM 69.8 °F 53.6 °F 56% 30.20 in 10.0 mi Variable 4.6 mph - N/A   Mostly Cloudy
7:15 PM 68.0 °F 55.4 °F 64% 30.19 in 10.0 mi West 5.8 mph - N/A   Scattered Clouds
7:35 PM 68.0 °F 55.4 °F 64% 30.19 in 10.0 mi West 8.1 mph - N/A   Partly Cloudy
7:55 PM 66.2 °F 55.4 °F 68% 30.20 in 10.0 mi WSW 6.9 mph - N/A   Partly Cloudy
8:15 PM 68.0 °F 53.6 °F 60% 30.20 in 10.0 mi WSW 4.6 mph - N/A   Mostly Cloudy
8:35 PM 66.2 °F 53.6 °F 64% 30.21 in 10.0 mi SSW 4.6 mph - N/A   Mostly Cloudy
8:55 PM 66.2 °F 51.8 °F 60% 30.24 in 10.0 mi WNW 6.9 mph - N/A   Overcast
9:15 PM 66.2 °F 51.8 °F 60% 30.27 in 10.0 mi NW 8.1 mph 25.3 mph N/A   Overcast
9:35 PM 64.4 °F 53.6 °F 68% 30.26 in 10.0 mi South 11.5 mph - N/A   Overcast
9:55 PM 62.6 °F 53.6 °F 72% 30.26 in 10.0 mi South 4.6 mph - N/A   Mostly Cloudy
10:35 PM 60.8 °F 53.6 °F 77% 30.26 in 10.0 mi NNW 6.9 mph - N/A   Scattered Clouds
10:55 PM 60.8 °F 53.6 °F 77% 30.25 in 10.0 mi North 3.5 mph - N/A   Clear
11:15 PM 59.0 °F 53.6 °F 82% 30.25 in 10.0 mi Calm Calm - N/A   Clear
11:35 PM 59.0 °F 53.6 °F 82% 30.24 in 10.0 mi Calm Calm - N/A   Clear
11:55 PM 57.2 °F 53.6 °F 88% 30.24 in 10.0 mi Calm Calm - N/A   Clear